GW5827 Weather Reports


time (UTC)temp
C
wind
direction
speed
KPH
gust
KPH
rain 1hr
cm
rain 24hr
cm
rain mn
cm
humidity
%
barometer
mb
20260504235216 25 157 0.0 0.0 0.00 0.58 0.58 48 1001.4
20260504234713 25 136 0.0 1.6 0.00 0.58 0.58 49 1001.4
20260504234210 25 159 0.0 1.6 0.00 0.58 0.58 51 1001.4
20260504233706 25 145 0.0 1.6 0.00 0.58 0.58 50 1001.3
20260504233202 25 160 0.0 0.0 0.00 0.58 0.58 48 1001.5
20260504232700 26 200 4.8 4.8 0.00 0.58 0.58 50 1001.8
20260504232157 26 166 0.0 1.6 0.00 0.58 0.58 46 1001.7
20260504231653 26 113 0.0 0.0 0.00 0.58 0.58 48 1001.8
20260504231150 26 150 0.0 1.6 0.00 0.58 0.58 47 1001.8
20260504230646 26 133 1.6 3.2 0.00 0.58 0.58 47 1002.0
20260504230145 26 149 1.6 1.6 0.00 0.58 0.58 47 1001.9
20260504225643 26 157 0.0 0.0 0.00 0.58 0.58 48 1001.9
20260504225138 26 159 0.0 0.0 0.00 0.58 0.58 49 1002.0
20260504224636 25 165 0.0 1.6 0.00 0.58 0.58 49 1002.2
20260504224132 25 114 3.2 4.8 0.00 0.58 0.58 54 1002.0
20260504223630 25 137 0.0 0.0 0.00 0.58 0.58 59 1002.1
20260504223125 24 137 0.0 0.0 0.00 0.58 0.58 63 1002.1
20260504222623 24 136 0.0 0.0 0.00 0.58 0.58 67 1002.2
20260504222120 25 135 0.0 0.0 0.00 0.58 0.58 67 1002.0
20260504221617 25 135 0.0 1.6 0.00 0.58 0.58 65 1002.2
20260504221114 25 137 0.0 0.0 0.00 0.58 0.58 59 1001.9
20260504220610 25 134 0.0 1.6 0.00 0.58 0.58 56 1001.9
20260504220108 25 144 0.0 1.6 0.00 0.58 0.58 56 1002.1
20260504215603 26 171 1.6 1.6 0.00 0.58 0.58 54 1002.1
20260504215101 26 149 0.0 0.0 0.00 0.58 0.58 53 1002.2
20260504214557 26 142 3.2 3.2 0.00 0.58 0.58 52 1002.0
20260504214053 26 123 1.6 1.6 0.00 0.58 0.58 53 1002.1
20260504213550 26 39 6.4 6.4 0.00 0.58 0.58 54 1002.2
20260504213047 25 159 0.0 0.0 0.00 0.58 0.58 54 1002.0
20260504212543 25 135 0.0 1.6 0.00 0.58 0.58 59 1002.1
20260504212040 25 155 0.0 0.0 0.00 0.58 0.58 60 1002.3
20260504211537 25 139 0.0 1.6 0.00 0.58 0.58 59 1002.0
20260504211034 24 149 1.6 3.2 0.00 0.58 0.58 60 1002.2
20260504210531 24 107 4.8 4.8 0.00 0.58 0.58 60 1002.4
20260504210028 24 134 0.0 1.6 0.00 0.58 0.58 64 1002.5
20260504205526 24 142 0.0 0.0 0.00 0.58 0.58 67 1002.6
20260504205023 23 164 0.0 1.6 0.00 0.58 0.58 64 1002.6
20260504204521 23 163 1.6 1.6 0.00 0.58 0.58 66 1002.9
20260504204020 23 220 1.6 4.8 0.00 0.58 0.58 72 1002.9
20260504203518 23 153 0.0 0.0 0.00 0.58 0.58 69 1002.9
20260504203015 22 98 0.0 0.0 0.00 0.58 0.58 72 1002.9
20260504202510 22 96 1.6 1.6 0.00 0.58 0.58 72 1002.9
20260504202007 22 152 0.0 0.0 0.00 0.58 0.58 78 1002.8
20260504201504 21 165 0.0 0.0 0.00 0.58 0.58 80 1002.9
20260504201002 20 171 3.2 3.2 0.00 0.58 0.58 83 1003.1
20260504200458 20 129 1.6 1.6 0.00 0.58 0.58 88 1002.9
20260504195955 19 170 0.0 0.0 0.00 0.58 0.58 90 1003.2
20260504195451 18 172 0.0 1.6 0.00 0.58 0.58 89 1002.9
20260504194948 18 177 1.6 1.6 0.00 0.58 0.58 89 1002.9
20260504194444 18 170 0.0 1.6 0.00 0.58 0.58 91 1003.1
20260504193940 18 172 0.0 0.0 0.00 0.58 0.58 91 1003.3
20260504193437 18 166 0.0 0.0 0.00 0.58 0.58 93 1003.5
20260504192936 18 166 0.0 0.0 0.00 0.58 0.58 93 1003.7
20260504192433 17 159 0.0 0.0 0.00 0.58 0.58 93 1003.6
20260504191932 16 175 1.6 3.2 0.00 0.58 0.58 93 1003.6
20260504191429 16 126 1.6 3.2 0.00 0.58 0.58 93 1003.2
20260504190924 16 130 0.0 0.0 0.00 0.58 0.58 92 1003.8
20260504190420 16 124 1.6 1.6 0.13 0.58 0.58 92 1004.4
20260504185917 16 153 0.0 0.0 0.13 0.58 0.58 91 1004.6
20260504185414 17 147 0.0 0.0 0.36 0.56 0.56 89 1004.8
20260504184910 17 165 1.6 3.2 0.66 0.56 0.56 87 1004.7
20260504184406 17 148 0.0 0.0 1.32 0.51 0.51 84 1004.6
20260504183902 17 104 3.2 4.8 2.87 0.48 0.48 82 1004.1
20260504183400 18 67 6.4 9.7 1.98 0.33 0.33 80 1004.3
20260504182857 18 139 0.0 0.0 0.00 0.00 0.00 75 1004.8
20260504182354 19 144 1.6 1.6 0.00 0.00 0.00 71 1004.8
20260504181851 20 137 0.0 0.0 0.00 0.00 0.00 69 1005.1
20260504181348 20 160 0.0 0.0 0.00 0.00 0.00 66 1005.4
20260504180847 20 167 0.0 0.0 0.00 0.00 0.00 64 1005.1
20260504180345 20 170 1.6 1.6 0.00 0.00 0.00 65 1004.8
20260504175843 20 162 0.0 1.6 0.00 0.00 0.00 67 1004.5
20260504175339 19 140 0.0 0.0 0.00 0.00 0.00 71 1004.3
20260504174838 18 140 0.0 0.0 0.00 0.00 0.00 72 1004.5
20260504174335 18 146 0.0 0.0 0.00 0.00 0.00 73 1004.9
20260504173832 19 146 0.0 0.0 0.00 0.00 0.00 71 1004.9
20260504173328 19 149 0.0 0.0 0.00 0.00 0.00 69 1005.0
20260504172826 19 166 0.0 0.0 0.00 0.00 0.00 65 1005.1
20260504172322 19 178 1.6 1.6 0.00 0.00 0.00 64 1005.1
20260504171818 19 163 0.0 0.0 0.00 0.00 0.00 64 1005.0
20260504171315 19 150 0.0 0.0 0.00 0.00 0.00 64 1004.8
20260504170812 19 147 0.0 0.0 0.00 0.00 0.00 65 1004.8
20260504170309 18 149 0.0 0.0 0.00 0.00 0.00 64 1005.0
20260504160227 19 143 0.0 1.6 0.00 0.00 0.00 60 1006.6
20260504150653 22 158 0.0 0.0 0.00 0.00 0.00 53 1007.2
20260504150150 22 158 0.0 0.0 0.00 0.00 0.00 50 1007.2
20260504141119 23 112 3.2 3.2 0.00 0.00 0.00 50 1006.8
20260504140615 22 130 1.6 3.2 0.00 0.00 0.00 53 1007.0
20260504140111 22 135 1.6 3.2 0.00 0.00 0.00 54 1006.9
20260504130539 19 120 3.2 4.8 0.00 0.00 0.00 61 1007.7
20260504110427 11 162 0.0 0.0 0.00 0.00 0.00 88 1008.2
20260504100344 12 159 0.0 0.0 0.00 0.00 0.00 88 1007.7
20260504081737 13 150 0.0 0.0 0.00 0.00 0.00 80 1007.7
20260504081233 13 160 0.0 0.0 0.00 0.00 0.00 79 1007.5
20260504080730 13 160 0.0 0.0 0.00 0.00 0.00 79 1007.6
20260504080226 13 158 0.0 0.0 0.00 0.00 0.00 78 1007.4
20260504070153 15 167 1.6 1.6 0.00 0.00 0.00 69 1007.7
20260504060114 17 166 0.0 0.0 0.00 0.00 0.00 59 1007.7
20260504050542 18 141 1.6 3.2 0.00 0.00 0.00 56 1007.2
20260504045536 18 163 1.6 3.2 0.00 0.00 0.00 55 1007.4
20260504045032 18 162 0.0 1.6 0.00 0.00 0.00 55 1007.5
20260504044529 18 167 0.0 0.0 0.00 0.00 0.00 56 1007.6
20260504044026 18 161 1.6 1.6 0.00 0.00 0.00 55 1007.8
20260504043523 18 163 0.0 1.6 0.00 0.00 0.00 55 1008.1
20260504043021 18 154 0.0 0.0 0.00 0.00 0.00 55 1008.1
20260504042517 18 149 0.0 1.6 0.00 0.00 0.00 54 1008.2
20260504042014 19 163 0.0 0.0 0.00 0.00 0.00 53 1008.3
20260504041510 19 165 1.6 3.2 0.00 0.00 0.00 54 1008.4
20260504041006 19 154 0.0 1.6 0.00 0.00 0.00 52 1008.3
20260504040504 19 160 0.0 0.0 0.00 0.00 0.00 52 1008.5
20260504040000 20 192 3.2 3.2 0.00 0.00 0.00 52 1008.3
20260504035458 20 183 0.0 1.6 0.00 0.00 0.00 51 1008.4
20260504034954 20 161 0.0 0.0 0.00 0.00 0.00 50 1008.7
20260504034451 20 165 0.0 0.0 0.00 0.00 0.00 49 1008.9
20260504033948 20 152 0.0 0.0 0.00 0.00 0.00 49 1008.9
20260504033446 20 163 0.0 1.6 0.00 0.00 0.00 50 1009.1
20260504032943 20 146 1.6 1.6 0.00 0.00 0.00 50 1008.9
20260504032440 20 153 0.0 0.0 0.00 0.00 0.00 51 1008.9
20260504031937 20 153 0.0 1.6 0.00 0.00 0.00 51 1008.8
20260504031434 20 154 0.0 0.0 0.00 0.00 0.00 51 1008.8
20260504030930 20 153 0.0 0.0 0.00 0.00 0.00 50 1008.8
20260504030427 20 149 0.0 1.6 0.00 0.00 0.00 51 1008.9
20260504025923 20 183 0.0 1.6 0.00 0.00 0.00 50 1008.7
20260504025420 19 150 0.0 0.0 0.00 0.00 0.00 52 1008.9
20260504024917 19 171 1.6 3.2 0.00 0.00 0.00 51 1008.7
20260504024414 18 160 0.0 0.0 0.00 0.00 0.00 52 1008.7
20260504023911 18 163 0.0 0.0 0.00 0.00 0.00 55 1008.6
20260504023408 18 161 0.0 0.0 0.00 0.00 0.00 56 1008.7
20260504022903 17 151 0.0 0.0 0.00 0.00 0.00 57 1008.6
20260504022400 17 151 0.0 0.0 0.00 0.00 0.00 58 1008.7
20260504021856 17 151 0.0 0.0 0.00 0.00 0.00 58 1008.7
20260504021354 17 151 0.0 0.0 0.00 0.00 0.00 57 1008.5
20260504020851 17 151 0.0 0.0 0.00 0.00 0.00 57 1008.4
20260504020347 18 151 0.0 0.0 0.00 0.00 0.00 58 1008.5
20260504015843 18 151 0.0 0.0 0.00 0.00 0.00 56 1008.5
20260504015340 18 151 0.0 0.0 0.00 0.00 0.00 55 1008.3
20260504014836 18 151 0.0 0.0 0.00 0.00 0.00 55 1008.4
20260504014332 18 151 0.0 0.0 0.00 0.00 0.00 55 1008.3
20260504013830 18 151 0.0 0.0 0.00 0.00 0.00 54 1008.3
20260504013328 19 151 0.0 0.0 0.00 0.00 0.00 53 1008.2
20260504012824 19 152 0.0 0.0 0.00 0.00 0.00 52 1008.4
20260504012322 20 151 0.0 0.0 0.00 0.00 0.00 51 1008.4
20260504011819 20 152 0.0 0.0 0.00 0.00 0.00 51 1008.1
20260504011316 20 152 0.0 0.0 0.00 0.00 0.00 48 1008.1
20260504010811 21 152 0.0 0.0 0.00 0.00 0.00 47 1008.0
20260504010307 21 162 0.0 0.0 0.00 0.00 0.00 47 1008.3
20260504005804 21 162 0.0 0.0 0.00 0.00 0.00 46 1008.0
20260504005301 21 159 0.0 0.0 0.00 0.00 0.00 44 1008.2
20260504004759 22 158 0.0 0.0 0.00 0.00 0.00 44 1008.3
20260504004256 22 176 1.6 1.6 0.00 0.00 0.00 43 1008.1
20260504003752 22 156 0.0 0.0 0.00 0.00 0.00 43 1008.2
20260504003249 22 159 0.0 0.0 0.00 0.00 0.00 42 1008.2
20260504002746 22 158 0.0 0.0 0.00 0.00 0.00 40 1008.2
20260504002243 23 151 0.0 0.0 0.00 0.00 0.00 41 1008.2
20260504001741 23 164 0.0 1.6 0.00 0.00 0.00 39 1008.2
20260504001237 23 144 1.6 1.6 0.00 0.00 0.00 38 1008.3
20260504000734 23 153 0.0 0.0 0.00 0.00 0.00 38 1008.2
20260504000233 23 115 1.6 3.2 0.00 0.00 0.00 38 1008.3
20260503235729 24 145 0.0 0.0 0.00 0.00 0.00 37 1008.3
20260503235226 24 166 0.0 0.0 0.00 0.00 0.00 37 1008.1